{"data":{"norad_id":63659,"epoch":"2026-05-24T20:00:25.933536Z","epoch_age_seconds":92995,"freshness":"FRESH","line1":"1 63659U 25083AB  26144.83363349  .00017168  00000+0  63168-3 0  9992","line2":"2 63659  42.9955 298.5926 0002800 256.7843 103.2697 15.27591980 61700","mean_motion":15.2759198,"eccentricity":0.00028,"inclination_deg":42.9955,"raan_deg":298.5926,"arg_perigee_deg":256.7843,"mean_anomaly_deg":103.2697,"bstar":0.00063168,"rev_number":6170,"period_min":94.266009435321,"perigee_km":481.09210178163,"apogee_km":484.93434590699,"semimajor_km":6861.1502238443,"source":"CELESTRAK","updated_at":"2026-05-25T13:38:20.088473Z"}}